SCP
0 0 0 0 0 0 0 0 0 0 0 0 0 0 0 0 0 0 0 0 0 0
0 0 0 0 0 0 0 0 0 0 0 0 0 0 0 0 0 0 0 0 0 0
0 0 0 0 0 0 0 0 0 0 0 0 0 0 0 0 0 0 0 0 0 0
0 0 0 0 0 0 0 0 0 0 0 0 0 0 0 0 0 0 0 0 0 0
0 0 0 0 0 0 0 0 0 0 0 0 0 0 0 0 0 0 0 0 0 0
0 0 0 0 0 0 0 0 0 0 0 0 0 0 0 0 0 0 0 0 0 0
0 0 0 0 0 0 0 0 0 0 0 0 0 0 0 0 0 0 0 0 0 0
0 0 0 0 0 0 0 0 0 0 0 0 0 0 0 0 0 0 0 0 0 0
0 0 0 0 0 0 0 0 0 0 0 0 0 0 0 0 0 0 0 0 0 0
0 0 0 0 0 0 0 0 0 0 0 0 0 0 0 0 0 0 0 0 0 0
0 0 0 0 0 0 0 0 0 0 0 0 0 0 0 0 0 0 0 0 0 0
0 0 0 0 0 0 0 0 0 0 0 0 0 0 0 0 0 0 0 0 0 0
0 0 0 0 0 0 0 0 0 0 0 0 0 0 0 0 0 0 0 0 0 0
0 0 0 0 0 0 0 0 0 0 0 0 0 0 0 0 0 0 0 0 0 0
Wind_Speed_500mb
91 87 86 85 76 69 63 55 48 43 38 32 27 23 22 14 12 9 7 6 6 6
91 84 93 82 71 64 56 51 47 43 37 31 27 26 21 19 11 10 7 5 5 5
89 80 72 73 68 60 54 47 46 45 39 33 29 28 26 15 14 12 7 5 4 3
84 70 79 72 67 63 54 55 55 47 44 36 33 33 19 20 18 14 10 6 3 1
71 74 83 78 71 64 61 57 53 48 41 37 40 23 25 23 20 16 12 8 4 2
88 82 80 80 74 69 62 59 50 45 35 45 32 30 29 25 22 18 12 9 7 5
74 86 75 82 75 71 65 53 49 41 45 34 36 32 28 26 23 18 14 12 9 7
93 84 81 82 77 70 58 53 45 44 48 40 35 33 30 27 23 18 16 13 9 9
89 88 89 83 79 68 58 54 46 49 52 40 38 36 30 27 23 19 16 13 13 11
87 91 85 83 76 68 64 55 48 52 45 42 40 36 29 26 22 20 17 15 14 11
89 86 80 79 77 71 65 61 54 48 43 44 39 35 29 27 26 24 21 19 16 16
88 84 81 82 80 72 70 61 60 47 46 44 40 34 29 28 28 26 25 21 20 21
87 85 87 88 79 74 62 64 46 44 45 39 35 31 30 29 28 28 25 24 25 26
91 92 90 88 81 74 63 50 48 48 47 42 36 31 30 29 27 26 25 25 25 25
Wind_Direction_500mb
212 211 211 209 204 203 201 198 196 199 196 193 191 198 205 194 192 163 158 128 88 57
206 207 208 202 202 200 197 194 194 198 198 193 193 204 197 201 184 183 171 140 94 62
203 197 213 207 197 192 191 196 201 197 196 196 199 205 201 188 203 192 183 149 114 63
197 192 202 211 195 191 188 204 197 194 195 196 203 199 189 208 205 198 183 179 149 106
203 196 201 206 197 195 194 200 197 193 195 207 202 186 210 208 204 197 188 178 185 215
200 192 200 202 197 198 193 194 190 195 202 214 183 206 210 204 203 197 192 192 198 200
200 193 198 200 199 193 192 187 187 197 210 195 197 205 209 207 203 198 196 200 201 203
196 194 192 199 196 192 187 185 187 207 210 190 202 208 206 206 203 201 200 205 203 212
195 193 192 198 192 188 183 193 196 214 205 200 206 205 200 207 204 199 202 206 208 208
196 191 191 197 190 187 190 194 197 213 200 204 207 205 198 206 203 203 206 208 215 215
193 194 194 198 193 191 195 194 191 203 203 207 206 208 202 204 208 209 210 210 210 219
197 198 201 200 198 198 198 195 204 196 201 205 207 206 204 209 210 213 214 214 218 220
203 207 203 203 203 201 194 205 193 194 198 206 212 210 207 210 215 219 219 220 222 224
206 204 206 202 205 202 199 195 191 194 198 208 213 215 213 215 218 216 217 218 220 223
Wind_Speed_850mb
91 87 86 85 76 69 63 55 48 43 38 32 27 23 22 14 12 9 7 6 6 6
91 84 93 82 71 64 56 51 47 43 37 31 27 26 21 19 11 10 7 5 5 5
89 80 72 73 68 60 54 47 46 45 39 33 29 28 26 15 14 12 7 5 4 3
84 70 79 72 67 63 54 55 55 47 44 36 33 33 19 20 18 14 10 6 3 1
71 74 83 78 71 64 61 57 53 48 41 37 40 23 25 23 20 16 12 8 4 2
88 82 80 80 74 69 62 59 50 45 35 45 32 30 29 25 22 18 12 9 7 5
74 86 75 82 75 71 65 53 49 41 45 34 36 32 28 26 23 18 14 12 9 7
93 84 81 82 77 70 58 53 45 44 48 40 35 33 30 27 23 18 16 13 9 9
89 88 89 83 79 68 58 54 46 49 52 40 38 36 30 27 23 19 16 13 13 11
87 91 85 83 76 68 64 55 48 52 45 42 40 36 29 26 22 20 17 15 14 11
89 86 80 79 77 71 65 61 54 48 43 44 39 35 29 27 26 24 21 19 16 16
88 84 81 82 80 72 70 61 60 47 46 44 40 34 29 28 28 26 25 21 20 21
87 85 87 88 79 74 62 64 46 44 45 39 35 31 30 29 28 28 25 24 25 26
91 92 90 88 81 74 63 50 48 48 47 42 36 31 30 29 27 26 25 25 25 25
Wind_Direction_850mb
212 211 211 209 204 203 201 198 196 199 196 193 191 198 205 194 192 163 158 128 88 57
206 207 208 202 202 200 197 194 194 198 198 193 193 204 197 201 184 183 171 140 94 62
203 197 213 207 197 192 191 196 201 197 196 196 199 205 201 188 203 192 183 149 114 63
197 192 202 211 195 191 188 204 197 194 195 196 203 199 189 208 205 198 183 179 149 106
203 196 201 206 197 195 194 200 197 193 195 207 202 186 210 208 204 197 188 178 185 215
200 192 200 202 197 198 193 194 190 195 202 214 183 206 210 204 203 197 192 192 198 200
200 193 198 200 199 193 192 187 187 197 210 195 197 205 209 207 203 198 196 200 201 203
196 194 192 199 196 192 187 185 187 207 210 190 202 208 206 206 203 201 200 205 203 212
195 193 192 198 192 188 183 193 196 214 205 200 206 205 200 207 204 199 202 206 208 208
196 191 191 197 190 187 190 194 197 213 200 204 207 205 198 206 203 203 206 208 215 215
193 194 194 198 193 191 195 194 191 203 203 207 206 208 202 204 208 209 210 210 210 219
197 198 201 200 198 198 198 195 204 196 201 205 207 206 204 209 210 213 214 214 218 220
203 207 203 203 203 201 194 205 193 194 198 206 212 210 207 210 215 219 219 220 222 224
206 204 206 202 205 202 199 195 191 194 198 208 213 215 213 215 218 216 217 218 220 223